Year,Month,Day,Hour,Minute,Value (Times are PST for temperature in C)
2017,08,22,00,00,15.00
2017,08,22,00,01,15.10
2017,08,22,00,02,15.10
2017,08,22,00,03,15.10
2017,08,22,00,04,15.00
2017,08,22,00,05,15.00
2017,08,22,00,06,14.90
2017,08,22,00,07,14.90
2017,08,22,00,08,14.90
2017,08,22,00,09,14.90
2017,08,22,00,10,14.90
2017,08,22,00,11,14.90
2017,08,22,00,12,14.90
2017,08,22,00,13,14.90
2017,08,22,00,14,14.90
2017,08,22,00,15,14.80
2017,08,22,00,16,14.80
2017,08,22,00,17,14.80
2017,08,22,00,18,14.80
2017,08,22,00,19,14.80
2017,08,22,00,20,14.80
2017,08,22,00,21,14.80
2017,08,22,00,22,14.80
2017,08,22,00,23,14.80
2017,08,22,00,24,14.80
2017,08,22,00,25,14.80
2017,08,22,00,26,14.90
2017,08,22,00,27,14.90
2017,08,22,00,28,15.00
2017,08,22,00,29,15.00
2017,08,22,00,30,15.00
2017,08,22,00,31,15.00
2017,08,22,00,32,14.90
2017,08,22,00,33,14.90
2017,08,22,00,34,14.90
2017,08,22,00,35,14.80
2017,08,22,00,36,14.80
2017,08,22,00,37,14.80
2017,08,22,00,38,14.80
2017,08,22,00,39,14.80
2017,08,22,00,40,14.80
2017,08,22,00,41,14.80
2017,08,22,00,42,14.80
2017,08,22,00,43,14.80
2017,08,22,00,44,14.80
2017,08,22,00,45,14.80
2017,08,22,00,46,14.80
2017,08,22,00,47,14.80
2017,08,22,00,48,14.80
2017,08,22,00,49,14.80
2017,08,22,00,50,14.80
2017,08,22,00,51,14.80
2017,08,22,00,52,14.70
2017,08,22,00,53,14.70
2017,08,22,00,54,14.70
2017,08,22,00,55,14.70
2017,08,22,00,56,14.70
2017,08,22,00,57,14.70
2017,08,22,00,58,14.70
2017,08,22,00,59,14.70
2017,08,22,01,00,14.70
2017,08,22,01,01,14.60
2017,08,22,01,02,14.60
2017,08,22,01,03,14.60
2017,08,22,01,04,14.60
2017,08,22,01,05,14.50
2017,08,22,01,06,14.50
2017,08,22,01,07,14.50
2017,08,22,01,08,14.40
2017,08,22,01,09,14.40
2017,08,22,01,10,14.40
2017,08,22,01,11,14.40
2017,08,22,01,12,14.40
2017,08,22,01,13,14.40
2017,08,22,01,14,14.40
2017,08,22,01,15,14.40
2017,08,22,01,16,14.40
2017,08,22,01,17,14.40
2017,08,22,01,18,14.40
2017,08,22,01,19,14.40
2017,08,22,01,20,14.40
2017,08,22,01,21,14.40
2017,08,22,01,22,14.40
2017,08,22,01,23,14.30
2017,08,22,01,24,14.30
2017,08,22,01,25,14.30
2017,08,22,01,26,14.30
2017,08,22,01,27,14.30
2017,08,22,01,28,14.20
2017,08,22,01,29,14.20
2017,08,22,01,30,14.20
2017,08,22,01,31,14.10
2017,08,22,01,32,14.10
2017,08,22,01,33,14.20
2017,08,22,01,34,14.20
2017,08,22,01,35,14.20
2017,08,22,01,36,14.20
2017,08,22,01,37,14.20
2017,08,22,01,38,14.20
2017,08,22,01,39,14.20
2017,08,22,01,40,14.20
2017,08,22,01,41,14.20
2017,08,22,01,42,14.20
2017,08,22,01,43,14.20
2017,08,22,01,44,14.30
2017,08,22,01,45,14.30
2017,08,22,01,46,14.30
2017,08,22,01,47,14.30
2017,08,22,01,48,14.30
2017,08,22,01,49,14.30
2017,08,22,01,50,14.30
2017,08,22,01,51,14.30
2017,08,22,01,52,14.20
2017,08,22,01,53,14.20
2017,08,22,01,54,14.20
2017,08,22,01,55,14.20
2017,08,22,01,56,14.20
2017,08,22,01,57,14.20
2017,08,22,01,58,14.20
2017,08,22,01,59,14.20
2017,08,22,02,00,14.10
2017,08,22,02,01,14.10
2017,08,22,02,02,14.10
2017,08,22,02,03,14.10
2017,08,22,02,04,14.10
2017,08,22,02,05,14.10
2017,08,22,02,06,14.00
2017,08,22,02,07,14.00
2017,08,22,02,08,14.00
2017,08,22,02,09,14.00
2017,08,22,02,10,14.00
2017,08,22,02,11,13.90
2017,08,22,02,12,13.90
2017,08,22,02,13,13.90
2017,08,22,02,14,13.90
2017,08,22,02,15,13.90
2017,08,22,02,16,13.90
2017,08,22,02,17,13.80
2017,08,22,02,18,13.80
2017,08,22,02,19,13.80
2017,08,22,02,20,13.80
2017,08,22,02,21,13.80
2017,08,22,02,22,13.70
2017,08,22,02,23,13.70
2017,08,22,02,24,13.70
2017,08,22,02,25,13.70
2017,08,22,02,26,13.70
2017,08,22,02,27,13.70
2017,08,22,02,28,13.80
2017,08,22,02,29,13.80
2017,08,22,02,30,13.80
2017,08,22,02,31,13.80
2017,08,22,02,32,13.80
2017,08,22,02,33,13.90
2017,08,22,02,34,13.90
2017,08,22,02,35,13.90
2017,08,22,02,36,13.90
2017,08,22,02,37,13.90
2017,08,22,02,38,13.90
2017,08,22,02,39,13.90
2017,08,22,02,40,13.90
2017,08,22,02,41,13.90
2017,08,22,02,42,13.90
2017,08,22,02,43,13.90
2017,08,22,02,44,13.90
2017,08,22,02,45,13.90
2017,08,22,02,46,13.90
2017,08,22,02,47,13.90
2017,08,22,02,48,13.90
2017,08,22,02,49,13.90
2017,08,22,02,50,13.90
2017,08,22,02,51,13.90
2017,08,22,02,52,13.90
2017,08,22,02,53,13.90
2017,08,22,02,54,13.90
2017,08,22,02,55,13.90
2017,08,22,02,56,13.90
2017,08,22,02,57,13.90
2017,08,22,02,58,13.80
2017,08,22,02,59,13.80
2017,08,22,03,00,13.80
2017,08,22,03,01,13.80
2017,08,22,03,02,13.80
2017,08,22,03,03,13.80
2017,08,22,03,04,13.80
2017,08,22,03,05,13.80
2017,08,22,03,06,13.80
2017,08,22,03,07,13.80
2017,08,22,03,08,13.80
2017,08,22,03,09,13.80
2017,08,22,03,10,13.70
2017,08,22,03,11,13.70
2017,08,22,03,12,13.70
2017,08,22,03,13,13.70
2017,08,22,03,14,13.70
2017,08,22,03,15,13.60
2017,08,22,03,16,13.60
2017,08,22,03,17,13.60
2017,08,22,03,18,13.60
2017,08,22,03,19,13.60
2017,08,22,03,20,13.50
2017,08,22,03,21,13.50
2017,08,22,03,22,13.50
2017,08,22,03,23,13.50
2017,08,22,03,24,13.40
2017,08,22,03,25,13.40
2017,08,22,03,26,13.40
2017,08,22,03,27,13.40
2017,08,22,03,28,13.40
2017,08,22,03,29,13.40
2017,08,22,03,30,13.40
2017,08,22,03,31,13.40
2017,08,22,03,32,13.40
2017,08,22,03,33,13.30
2017,08,22,03,34,13.30
2017,08,22,03,35,13.30
2017,08,22,03,36,13.30
2017,08,22,03,37,13.30
2017,08,22,03,38,13.30
2017,08,22,03,39,13.30
2017,08,22,03,40,13.30
2017,08,22,03,41,13.30
2017,08,22,03,42,13.30
2017,08,22,03,43,13.30
2017,08,22,03,44,13.30
2017,08,22,03,45,13.30
2017,08,22,03,46,13.30
2017,08,22,03,47,13.30
2017,08,22,03,48,13.30
2017,08,22,03,49,13.20
2017,08,22,03,50,13.20
2017,08,22,03,51,13.20
2017,08,22,03,52,13.20
2017,08,22,03,53,13.20
2017,08,22,03,54,13.10
2017,08,22,03,55,13.10
2017,08,22,03,56,13.10
2017,08,22,03,57,13.10
2017,08,22,03,58,13.20
2017,08,22,03,59,13.20
2017,08,22,04,00,13.20
2017,08,22,04,01,13.20
2017,08,22,04,02,13.20
2017,08,22,04,03,13.20
2017,08,22,04,04,13.20
2017,08,22,04,05,13.10
2017,08,22,04,06,13.10
2017,08,22,04,07,13.10
2017,08,22,04,08,13.10
2017,08,22,04,09,13.10
2017,08,22,04,10,13.10
2017,08,22,04,11,13.10
2017,08,22,04,12,13.10
2017,08,22,04,13,13.10
2017,08,22,04,14,13.10
2017,08,22,04,15,13.10
2017,08,22,04,16,13.10
2017,08,22,04,17,13.10
2017,08,22,04,18,13.10
2017,08,22,04,19,13.10
2017,08,22,04,20,13.10
2017,08,22,04,21,13.10
2017,08,22,04,22,13.10
2017,08,22,04,23,13.10
2017,08,22,04,24,13.10
2017,08,22,04,25,13.10
2017,08,22,04,26,13.10
2017,08,22,04,27,13.00
2017,08,22,04,28,13.00
2017,08,22,04,29,13.00
2017,08,22,04,30,13.00
2017,08,22,04,31,12.90
2017,08,22,04,32,13.00
2017,08,22,04,33,13.00
2017,08,22,04,34,13.00
2017,08,22,04,35,13.00
2017,08,22,04,36,13.00
2017,08,22,04,37,13.00
2017,08,22,04,38,13.00
2017,08,22,04,39,13.00
2017,08,22,04,40,12.90
2017,08,22,04,41,12.90
2017,08,22,04,42,12.90
2017,08,22,04,43,12.90
2017,08,22,04,44,12.80
2017,08,22,04,45,12.80
2017,08,22,04,46,12.80
2017,08,22,04,47,12.80
2017,08,22,04,48,12.80
2017,08,22,04,49,12.80
2017,08,22,04,50,12.80
2017,08,22,04,51,12.80
2017,08,22,04,52,12.80
2017,08,22,04,53,12.80
2017,08,22,04,54,12.80
2017,08,22,04,55,12.80
2017,08,22,04,56,12.80
2017,08,22,04,57,12.80
2017,08,22,04,58,12.80
2017,08,22,04,59,12.80
2017,08,22,05,00,12.80
2017,08,22,05,01,12.80
2017,08,22,05,02,12.80
2017,08,22,05,03,12.80
2017,08,22,05,04,12.80
2017,08,22,05,05,12.80
2017,08,22,05,06,12.80
2017,08,22,05,07,12.80
2017,08,22,05,08,12.80
2017,08,22,05,09,12.70
2017,08,22,05,10,12.70
2017,08,22,05,11,12.70
2017,08,22,05,12,12.80
2017,08,22,05,13,12.80
2017,08,22,05,14,12.80
2017,08,22,05,15,12.80
2017,08,22,05,16,12.80
2017,08,22,05,17,12.80
2017,08,22,05,18,12.80
2017,08,22,05,19,12.80
2017,08,22,05,20,12.70
2017,08,22,05,21,12.70
2017,08,22,05,22,12.70
2017,08,22,05,23,12.70
2017,08,22,05,24,12.70
2017,08,22,05,25,12.70
2017,08,22,05,26,12.80
2017,08,22,05,27,12.80
2017,08,22,05,28,12.80
2017,08,22,05,29,12.70
2017,08,22,05,30,12.70
2017,08,22,05,31,12.70
2017,08,22,05,32,12.70
2017,08,22,05,33,12.70
2017,08,22,05,34,12.80
2017,08,22,05,35,12.80
2017,08,22,05,36,12.80
2017,08,22,05,37,12.80
2017,08,22,05,38,12.80
2017,08,22,05,39,12.80
2017,08,22,05,40,12.80
2017,08,22,05,41,12.80
2017,08,22,05,42,12.80
2017,08,22,05,43,12.80
2017,08,22,05,44,12.80
2017,08,22,05,45,12.80
2017,08,22,05,46,12.90
2017,08,22,05,47,12.90
2017,08,22,05,48,12.90
2017,08,22,05,49,13.00
2017,08,22,05,50,13.00
2017,08,22,05,51,13.10
2017,08,22,05,52,13.10
2017,08,22,05,53,13.10
2017,08,22,05,54,13.10
2017,08,22,05,55,13.10
2017,08,22,05,56,13.10
2017,08,22,05,57,13.10
2017,08,22,05,58,13.10
2017,08,22,05,59,13.10
2017,08,22,06,00,13.10
2017,08,22,06,01,13.10
2017,08,22,06,02,13.10
2017,08,22,06,03,13.20
2017,08,22,06,04,13.20
2017,08,22,06,05,13.20
2017,08,22,06,06,13.20
2017,08,22,06,07,13.20
2017,08,22,06,08,13.10
2017,08,22,06,09,13.10
2017,08,22,06,10,13.10
2017,08,22,06,11,13.10
2017,08,22,06,12,13.00
2017,08,22,06,13,13.10
2017,08,22,06,14,13.10
2017,08,22,06,15,13.10
2017,08,22,06,16,13.10
2017,08,22,06,17,13.10
2017,08,22,06,18,13.10
2017,08,22,06,19,13.10
2017,08,22,06,20,13.10
2017,08,22,06,21,13.10
2017,08,22,06,22,13.10
2017,08,22,06,23,13.10
2017,08,22,06,24,13.10
2017,08,22,06,25,13.10
2017,08,22,06,26,13.20
2017,08,22,06,27,13.20
2017,08,22,06,28,13.20
2017,08,22,06,29,13.20
2017,08,22,06,30,13.20
2017,08,22,06,31,13.20
2017,08,22,06,32,13.20
2017,08,22,06,33,13.20
2017,08,22,06,34,13.20
2017,08,22,06,35,13.20
2017,08,22,06,36,13.20
2017,08,22,06,37,13.20
2017,08,22,06,38,13.20
2017,08,22,06,39,13.20
2017,08,22,06,40,13.20
2017,08,22,06,41,13.20
2017,08,22,06,42,13.20
2017,08,22,06,43,13.20
2017,08,22,06,44,13.20
2017,08,22,06,45,13.20
2017,08,22,06,46,13.20
2017,08,22,06,47,13.10
2017,08,22,06,48,13.20
2017,08,22,06,49,13.20
2017,08,22,06,50,13.20
2017,08,22,06,51,13.20
2017,08,22,06,52,13.20
2017,08,22,06,53,13.30
2017,08,22,06,54,13.30
2017,08,22,06,55,13.30
2017,08,22,06,56,13.30
2017,08,22,06,57,13.30
2017,08,22,06,58,13.30
2017,08,22,06,59,13.30
2017,08,22,07,00,13.30
2017,08,22,07,01,13.30
2017,08,22,07,02,13.30
2017,08,22,07,03,13.30
2017,08,22,07,04,13.30
2017,08,22,07,05,13.30
2017,08,22,07,06,13.40
2017,08,22,07,07,13.40
2017,08,22,07,08,13.40
2017,08,22,07,09,13.40
2017,08,22,07,10,13.40
2017,08,22,07,11,13.40
2017,08,22,07,12,13.30
2017,08,22,07,13,13.30
2017,08,22,07,14,13.30
2017,08,22,07,15,13.30
2017,08,22,07,16,13.30
2017,08,22,07,17,13.30
2017,08,22,07,18,13.30
2017,08,22,07,19,13.30
2017,08,22,07,20,13.30
2017,08,22,07,21,13.30
2017,08,22,07,22,13.30
2017,08,22,07,23,13.30
2017,08,22,07,24,13.40
2017,08,22,07,25,13.40
2017,08,22,07,26,13.50
2017,08,22,07,27,13.50
2017,08,22,07,28,13.60
2017,08,22,07,29,13.60
2017,08,22,07,30,13.60
2017,08,22,07,31,13.60
2017,08,22,07,32,13.60
2017,08,22,07,33,13.70
2017,08,22,07,34,13.70
2017,08,22,07,35,13.70
2017,08,22,07,36,13.80
2017,08,22,07,37,13.80
2017,08,22,07,38,13.90
2017,08,22,07,39,13.90
2017,08,22,07,40,14.00
2017,08,22,07,41,14.00
2017,08,22,07,42,14.10
2017,08,22,07,43,14.20
2017,08,22,07,44,14.20
2017,08,22,07,45,14.20
2017,08,22,07,46,14.30
2017,08,22,07,47,14.40
2017,08,22,07,48,14.50
2017,08,22,07,49,14.50
2017,08,22,07,50,14.60
2017,08,22,07,51,14.60
2017,08,22,07,52,14.70
2017,08,22,07,53,14.80
2017,08,22,07,54,14.80
2017,08,22,07,55,14.90
2017,08,22,07,56,14.90
2017,08,22,07,57,15.00
2017,08,22,07,58,15.00
2017,08,22,07,59,15.10
2017,08,22,08,00,15.10
2017,08,22,08,01,15.20
2017,08,22,08,02,15.20
2017,08,22,08,03,15.20
2017,08,22,08,04,15.30
2017,08,22,08,05,15.30
2017,08,22,08,06,15.40
2017,08,22,08,07,15.50
2017,08,22,08,08,15.50
2017,08,22,08,09,15.60
2017,08,22,08,10,15.70
2017,08,22,08,11,15.70
2017,08,22,08,12,15.80
2017,08,22,08,13,15.80
2017,08,22,08,14,15.90
2017,08,22,08,15,15.90
2017,08,22,08,16,16.00
2017,08,22,08,17,16.10
2017,08,22,08,18,16.20
2017,08,22,08,19,16.20
2017,08,22,08,20,16.20
2017,08,22,08,21,16.30
2017,08,22,08,22,16.30
2017,08,22,08,23,16.30
2017,08,22,08,24,16.40
2017,08,22,08,25,16.40
2017,08,22,08,26,16.50
2017,08,22,08,27,16.60
2017,08,22,08,28,16.60
2017,08,22,08,29,16.60
2017,08,22,08,30,16.60
2017,08,22,08,31,16.70
2017,08,22,08,32,16.70
2017,08,22,08,33,16.70
2017,08,22,08,34,16.70
2017,08,22,08,35,16.70
2017,08,22,08,36,16.70
2017,08,22,08,37,16.70
2017,08,22,08,38,16.70
2017,08,22,08,39,16.70
2017,08,22,08,40,16.70
2017,08,22,08,41,16.60
2017,08,22,08,42,16.60
2017,08,22,08,43,16.60
2017,08,22,08,44,16.60
2017,08,22,08,45,16.60
2017,08,22,08,46,16.60
2017,08,22,08,47,16.50
2017,08,22,08,48,16.50
2017,08,22,08,49,16.40
2017,08,22,08,50,16.40
2017,08,22,08,51,16.40
2017,08,22,08,52,16.30
2017,08,22,08,53,16.30
2017,08,22,08,54,16.30
2017,08,22,08,55,16.30
2017,08,22,08,56,16.20
2017,08,22,08,57,16.20
2017,08,22,08,58,16.20
2017,08,22,08,59,16.20
2017,08,22,09,00,16.20
2017,08,22,09,01,16.20
2017,08,22,09,02,16.20
2017,08,22,09,03,16.20
2017,08,22,09,04,16.20
2017,08,22,09,05,16.20
2017,08,22,09,06,16.20
2017,08,22,09,07,16.20
2017,08,22,09,08,16.20
2017,08,22,09,09,16.20
2017,08,22,09,10,16.20
2017,08,22,09,11,16.20
2017,08,22,09,12,16.20
2017,08,22,09,13,16.30
2017,08,22,09,14,16.30
2017,08,22,09,15,16.30
2017,08,22,09,16,16.40
2017,08,22,09,17,16.40
2017,08,22,09,18,16.50
2017,08,22,09,19,16.60
2017,08,22,09,20,16.70
2017,08,22,09,21,16.70
2017,08,22,09,22,16.80
2017,08,22,09,23,16.90
2017,08,22,09,24,17.00
2017,08,22,09,25,17.10
2017,08,22,09,26,17.10
2017,08,22,09,27,17.20
2017,08,22,09,28,17.20
2017,08,22,09,29,17.30
2017,08,22,09,30,17.30
2017,08,22,09,31,17.30
2017,08,22,09,32,17.40
2017,08,22,09,33,17.40
2017,08,22,09,34,17.40
2017,08,22,09,35,17.40
2017,08,22,09,36,17.40
2017,08,22,09,37,17.40
2017,08,22,09,38,17.40
2017,08,22,09,39,17.40
2017,08,22,09,40,17.40
2017,08,22,09,41,17.50
2017,08,22,09,42,17.50
2017,08,22,09,43,17.60
2017,08,22,09,44,17.60
2017,08,22,09,45,17.70
2017,08,22,09,46,17.70
2017,08,22,09,47,17.80
2017,08,22,09,48,17.90
2017,08,22,09,49,18.00
2017,08,22,09,50,18.10
2017,08,22,09,51,18.20
2017,08,22,09,52,18.30
2017,08,22,09,53,18.40
2017,08,22,09,54,18.50
2017,08,22,09,55,18.60
2017,08,22,09,56,18.70
2017,08,22,09,57,18.70
2017,08,22,09,58,18.80
2017,08,22,09,59,18.90
2017,08,22,10,00,19.00
2017,08,22,10,01,19.10
2017,08,22,10,02,19.10
2017,08,22,10,03,19.20
2017,08,22,10,04,19.30
2017,08,22,10,05,19.40
2017,08,22,10,06,19.40
2017,08,22,10,07,19.40
2017,08,22,10,08,19.40
2017,08,22,10,09,19.40
2017,08,22,10,10,19.40
2017,08,22,10,11,19.30
2017,08,22,10,12,19.30
2017,08,22,10,13,19.30
2017,08,22,10,14,19.30
2017,08,22,10,15,19.30
2017,08,22,10,16,19.30
2017,08,22,10,17,19.40
2017,08,22,10,18,19.50
2017,08,22,10,19,19.50
2017,08,22,10,20,19.60
2017,08,22,10,21,19.70
2017,08,22,10,22,19.80
2017,08,22,10,23,19.90
2017,08,22,10,24,20.00
2017,08,22,10,25,20.10
2017,08,22,10,26,20.20
2017,08,22,10,27,20.30
2017,08,22,10,28,20.40
2017,08,22,10,29,20.50
2017,08,22,10,30,20.50
2017,08,22,10,31,20.50
2017,08,22,10,32,20.50
2017,08,22,10,33,20.50
2017,08,22,10,34,20.50
2017,08,22,10,35,20.60
2017,08,22,10,36,20.60
2017,08,22,10,37,20.60
2017,08,22,10,38,20.60
2017,08,22,10,39,20.50
2017,08,22,10,40,20.40
2017,08,22,10,41,20.30
2017,08,22,10,42,20.30
2017,08,22,10,43,20.20
2017,08,22,10,44,20.10
2017,08,22,10,45,20.00
2017,08,22,10,46,20.00
2017,08,22,10,47,19.90
2017,08,22,10,48,19.80
2017,08,22,10,49,19.70
2017,08,22,10,50,19.50
2017,08,22,10,51,19.30
2017,08,22,10,52,19.20
2017,08,22,10,53,19.10
2017,08,22,10,54,19.10
2017,08,22,10,55,19.10
2017,08,22,10,56,19.10
2017,08,22,10,57,19.10
2017,08,22,10,58,19.20
2017,08,22,10,59,19.30
2017,08,22,11,00,19.30
2017,08,22,11,01,19.40
2017,08,22,11,02,19.50
2017,08,22,11,03,19.50
2017,08,22,11,04,19.60
2017,08,22,11,05,19.70
2017,08,22,11,06,19.80
2017,08,22,11,07,19.80
2017,08,22,11,08,19.90
2017,08,22,11,09,19.90
2017,08,22,11,10,20.00
2017,08,22,11,11,20.00
2017,08,22,11,12,20.10
2017,08,22,11,13,20.20
2017,08,22,11,14,20.30
2017,08,22,11,15,20.40
2017,08,22,11,16,20.60
2017,08,22,11,17,20.60
2017,08,22,11,18,20.70
2017,08,22,11,19,20.80
2017,08,22,11,20,20.80
2017,08,22,11,21,20.90
2017,08,22,11,22,20.90
2017,08,22,11,23,20.90
2017,08,22,11,24,20.90
2017,08,22,11,25,20.90
2017,08,22,11,26,20.90
2017,08,22,11,27,20.90
2017,08,22,11,28,20.90
2017,08,22,11,29,20.80
2017,08,22,11,30,20.70
2017,08,22,11,31,20.70
2017,08,22,11,32,20.60
2017,08,22,11,33,20.60
2017,08,22,11,34,20.50
2017,08,22,11,35,20.40
2017,08,22,11,36,20.50
2017,08,22,11,37,20.50
2017,08,22,11,38,20.50
2017,08,22,11,39,20.60
2017,08,22,11,40,20.60
2017,08,22,11,41,20.70
2017,08,22,11,42,20.70
2017,08,22,11,43,20.80
2017,08,22,11,44,20.80
2017,08,22,11,45,20.90
2017,08,22,11,46,20.90
2017,08,22,11,47,21.00
2017,08,22,11,48,21.10
2017,08,22,11,49,21.10
2017,08,22,11,50,21.10
2017,08,22,11,51,21.10
2017,08,22,11,52,21.10
2017,08,22,11,53,21.10
2017,08,22,11,54,21.20
2017,08,22,11,55,21.20
2017,08,22,11,56,21.20
2017,08,22,11,57,21.20
2017,08,22,11,58,21.20
2017,08,22,11,59,21.30
2017,08,22,12,00,21.40
2017,08,22,12,01,21.50
2017,08,22,12,02,21.60
2017,08,22,12,03,21.80
2017,08,22,12,04,21.90
2017,08,22,12,05,22.00
2017,08,22,12,06,22.00
2017,08,22,12,07,22.10
2017,08,22,12,08,22.10
2017,08,22,12,09,22.10
2017,08,22,12,10,22.20
2017,08,22,12,11,22.20
2017,08,22,12,12,22.20
2017,08,22,12,13,22.10
2017,08,22,12,14,22.10
2017,08,22,12,15,22.10
2017,08,22,12,16,22.10
2017,08,22,12,17,22.20
2017,08,22,12,18,22.20
2017,08,22,12,19,22.30
2017,08,22,12,20,22.40
2017,08,22,12,21,22.50
2017,08,22,12,22,22.60
2017,08,22,12,23,22.70
2017,08,22,12,24,22.70
2017,08,22,12,25,22.70
2017,08,22,12,26,22.80
2017,08,22,12,27,22.80
2017,08,22,12,28,22.90
2017,08,22,12,29,22.90
2017,08,22,12,30,22.90
2017,08,22,12,31,22.90
2017,08,22,12,32,22.80
2017,08,22,12,33,22.70
2017,08,22,12,34,22.60
2017,08,22,12,35,22.50
2017,08,22,12,36,22.40
2017,08,22,12,37,22.30
2017,08,22,12,38,22.20
2017,08,22,12,39,22.10
2017,08,22,12,40,22.10
2017,08,22,12,41,22.10
2017,08,22,12,42,22.00
2017,08,22,12,43,22.00
2017,08,22,12,44,21.90
2017,08,22,12,45,21.90
2017,08,22,12,46,21.90
2017,08,22,12,47,21.90
2017,08,22,12,48,21.90
2017,08,22,12,49,21.90
2017,08,22,12,50,22.00
2017,08,22,12,51,22.10
2017,08,22,12,52,22.10
2017,08,22,12,53,22.20
2017,08,22,12,54,22.20
2017,08,22,12,55,22.20
2017,08,22,12,56,22.20
2017,08,22,12,57,22.20
2017,08,22,12,58,22.20
2017,08,22,12,59,22.30
2017,08,22,13,00,22.40
2017,08,22,13,01,22.60
2017,08,22,13,02,22.80
2017,08,22,13,03,23.10
2017,08,22,13,04,23.40
2017,08,22,13,05,23.60
2017,08,22,13,06,23.70
2017,08,22,13,07,23.80
2017,08,22,13,08,23.90
2017,08,22,13,09,24.00
2017,08,22,13,10,24.00
2017,08,22,13,11,24.00
2017,08,22,13,12,24.00
2017,08,22,13,13,24.00
2017,08,22,13,14,24.00
2017,08,22,13,15,24.00
2017,08,22,13,16,23.90
2017,08,22,13,17,23.90
2017,08,22,13,18,23.90
2017,08,22,13,19,23.80
2017,08,22,13,20,23.70
2017,08,22,13,21,23.60
2017,08,22,13,22,23.60
2017,08,22,13,23,23.70
2017,08,22,13,24,23.70
2017,08,22,13,25,23.80
2017,08,22,13,26,23.90
2017,08,22,13,27,24.00
2017,08,22,13,28,24.10
2017,08,22,13,29,24.20
2017,08,22,13,30,24.30
2017,08,22,13,31,24.40
2017,08,22,13,32,24.50
2017,08,22,13,33,24.60
2017,08,22,13,34,24.70
2017,08,22,13,35,24.80
2017,08,22,13,36,24.80
2017,08,22,13,37,24.80
2017,08,22,13,38,24.80
2017,08,22,13,39,24.60
2017,08,22,13,40,24.50
2017,08,22,13,41,24.50
2017,08,22,13,42,24.60
2017,08,22,13,43,24.70
2017,08,22,13,44,24.80
2017,08,22,13,45,24.70
2017,08,22,13,46,24.70
2017,08,22,13,47,24.80
2017,08,22,13,48,24.90
2017,08,22,13,49,25.00
2017,08,22,13,50,25.10
2017,08,22,13,51,25.30
2017,08,22,13,52,25.40
2017,08,22,13,53,25.70
2017,08,22,13,54,25.90
2017,08,22,13,55,26.20
2017,08,22,13,56,26.40
2017,08,22,13,57,26.50
2017,08,22,13,58,26.70
2017,08,22,13,59,26.80
2017,08,22,14,00,26.80
2017,08,22,14,01,26.80
2017,08,22,14,02,26.80
2017,08,22,14,03,26.70
2017,08,22,14,04,26.70
2017,08,22,14,05,26.60
2017,08,22,14,06,26.60
2017,08,22,14,07,26.60
2017,08,22,14,08,26.60
2017,08,22,14,09,26.70
2017,08,22,14,10,26.70
2017,08,22,14,11,26.70
2017,08,22,14,12,26.60
2017,08,22,14,13,26.60
2017,08,22,14,14,26.70
2017,08,22,14,15,26.80
2017,08,22,14,16,26.90
2017,08,22,14,17,26.90
2017,08,22,14,18,27.00
2017,08,22,14,19,27.20
2017,08,22,14,20,27.20
2017,08,22,14,21,27.30
2017,08,22,14,22,27.40
2017,08,22,14,23,27.60
2017,08,22,14,24,27.80
2017,08,22,14,25,27.90
2017,08,22,14,26,28.00
2017,08,22,14,27,28.10
2017,08,22,14,28,28.20
2017,08,22,14,29,28.30
2017,08,22,14,30,28.30
2017,08,22,14,31,28.40
2017,08,22,14,32,28.50
2017,08,22,14,33,28.60
2017,08,22,14,34,28.70
2017,08,22,14,35,28.80
2017,08,22,14,36,28.80
2017,08,22,14,37,28.90
2017,08,22,14,38,28.90
2017,08,22,14,39,29.00
2017,08,22,14,40,29.10
2017,08,22,14,41,29.20
2017,08,22,14,42,29.30
2017,08,22,14,43,29.30
2017,08,22,14,44,29.40
2017,08,22,14,45,29.40
2017,08,22,14,46,29.40
2017,08,22,14,47,29.40
2017,08,22,14,48,29.40
2017,08,22,14,49,29.40
2017,08,22,14,50,29.40
2017,08,22,14,51,29.40
2017,08,22,14,52,29.40
2017,08,22,14,53,29.40
2017,08,22,14,54,29.40
2017,08,22,14,55,29.40
2017,08,22,14,56,29.40
2017,08,22,14,57,29.30
2017,08,22,14,58,29.20
2017,08,22,14,59,29.10
2017,08,22,15,00,29.10
2017,08,22,15,01,29.10
2017,08,22,15,02,29.20
2017,08,22,15,03,29.20
2017,08,22,15,04,29.10
2017,08,22,15,05,29.10
2017,08,22,15,06,29.10
2017,08,22,15,07,29.00
2017,08,22,15,08,29.00
2017,08,22,15,09,28.90
2017,08,22,15,10,28.90
2017,08,22,15,11,29.00
2017,08,22,15,12,29.00
2017,08,22,15,13,29.10
2017,08,22,15,14,29.10
2017,08,22,15,15,29.10
2017,08,22,15,16,29.20
2017,08,22,15,17,29.20
2017,08,22,15,18,29.20
2017,08,22,15,19,29.20
2017,08,22,15,20,29.30
2017,08,22,15,21,29.30
2017,08,22,15,22,29.30
2017,08,22,15,23,29.20
2017,08,22,15,24,29.30
2017,08,22,15,25,29.40
2017,08,22,15,26,29.50
2017,08,22,15,27,29.60
2017,08,22,15,28,29.70
2017,08,22,15,29,29.80
2017,08,22,15,30,29.90
2017,08,22,15,31,30.00
2017,08,22,15,32,30.10
2017,08,22,15,33,30.10
2017,08,22,15,34,30.20
2017,08,22,15,35,30.10
2017,08,22,15,36,30.00
2017,08,22,15,37,29.90
2017,08,22,15,38,29.80
2017,08,22,15,39,29.50
2017,08,22,15,40,29.30
2017,08,22,15,41,29.10
2017,08,22,15,42,29.00
2017,08,22,15,43,28.90
2017,08,22,15,44,28.90
2017,08,22,15,45,28.90
2017,08,22,15,46,28.90
2017,08,22,15,47,29.00
2017,08,22,15,48,28.90
2017,08,22,15,49,28.90
2017,08,22,15,50,28.90
2017,08,22,15,51,28.90
2017,08,22,15,52,28.80
2017,08,22,15,53,28.90
2017,08,22,15,54,29.00
2017,08,22,15,55,29.10
2017,08,22,15,56,29.00
2017,08,22,15,57,29.00
2017,08,22,15,58,28.90
2017,08,22,15,59,28.90
2017,08,22,16,00,28.90
2017,08,22,16,01,29.00
2017,08,22,16,02,29.20
2017,08,22,16,03,29.20
2017,08,22,16,04,29.20
2017,08,22,16,05,29.20
2017,08,22,16,06,29.10
2017,08,22,16,07,29.00
2017,08,22,16,08,29.00
2017,08,22,16,09,28.90
2017,08,22,16,10,28.90
2017,08,22,16,11,28.90
2017,08,22,16,12,28.90
2017,08,22,16,13,29.00
2017,08,22,16,14,29.00
2017,08,22,16,15,29.10
2017,08,22,16,16,29.20
2017,08,22,16,17,29.20
2017,08,22,16,18,29.20
2017,08,22,16,19,29.20
2017,08,22,16,20,29.20
2017,08,22,16,21,29.30
2017,08,22,16,22,29.30
2017,08,22,16,23,29.30
2017,08,22,16,24,29.30
2017,08,22,16,25,29.30
2017,08,22,16,26,29.30
2017,08,22,16,27,29.30
2017,08,22,16,28,29.30
2017,08,22,16,29,29.30
2017,08,22,16,30,29.30
2017,08,22,16,31,29.30
2017,08,22,16,32,29.30
2017,08,22,16,33,29.20
2017,08,22,16,34,29.10
2017,08,22,16,35,29.10
2017,08,22,16,36,29.00
2017,08,22,16,37,29.00
2017,08,22,16,38,29.00
2017,08,22,16,39,29.00
2017,08,22,16,40,29.00
2017,08,22,16,41,29.00
2017,08,22,16,42,29.10
2017,08,22,16,43,29.10
2017,08,22,16,44,29.10
2017,08,22,16,45,29.10
2017,08,22,16,46,29.10
2017,08,22,16,47,29.00
2017,08,22,16,48,29.00
2017,08,22,16,49,29.00
2017,08,22,16,50,28.90
2017,08,22,16,51,28.90
2017,08,22,16,52,28.90
2017,08,22,16,53,28.90
2017,08,22,16,54,28.90
2017,08,22,16,55,28.80
2017,08,22,16,56,28.80
2017,08,22,16,57,28.70
2017,08,22,16,58,28.70
2017,08,22,16,59,28.60
2017,08,22,17,00,28.70
2017,08,22,17,01,28.60
2017,08,22,17,02,28.60
2017,08,22,17,03,28.70
2017,08,22,17,04,28.70
2017,08,22,17,05,28.60
2017,08,22,17,06,28.60
2017,08,22,17,07,28.60
2017,08,22,17,08,28.60
2017,08,22,17,09,28.60
2017,08,22,17,10,28.60
2017,08,22,17,11,28.60
2017,08,22,17,12,28.50
2017,08,22,17,13,28.50
2017,08,22,17,14,28.40
2017,08,22,17,15,28.40
2017,08,22,17,16,28.40
2017,08,22,17,17,28.50
2017,08,22,17,18,28.50
2017,08,22,17,19,28.50